CZ-6A DEB

Satellite information

Favourite Embed

Satellite Type and Status

DEBRISIN ORBIT

Key statistics

Satellite CZ-6A DEB at a glance.

Uptime

970

Days in orbit

Revolutions

≈ 14.2

Per day

Orbit

SSO

Sun Synchronous Orbit

Inclination

98.8

Latest

Satellite identification and parameters

Extended collection of information and parameters for CZ-6A DEB.

Object identification

Identified? True

Debris? True

Object name: CZ-6A DEB

International designator: 2022-151AFN

Object number (NORAD): 56638

Object ID (CCSDS): 56638

Country: PEOPLES REPUBLIC OF CHINA (PRC)

Current information (Y/N): Y

RCS size: SMALL

Orbital parameters

Period: 101.565 minutes

Inclination: 98.8434 deg

SMA: 7210.882 km

Apoapsis: 867.766 km

Periapsis: 797.728 km

RAAN: 199.696 deg

Eccentricy: 0.0048564

Argument of periapsis: 284.338 deg

Mean anomaly: 75.2406 deg

Mean motion: 14.17816983 rev/day

Mean motion (dot): 0.00000432 rev/day2

B* drag term: 0.00023084 1/REarth

Two-line elements (TLE)

Creation date: July 2, 2025, 2:08 a.m.

Reference frame: TEME

Reference center: EARTH

Epoch: July 1, 2025, 7:03 p.m. UTC

TLE line 0: 0 CZ-6A DEB

TLE line 1: 1 56638U 22151AFN 25182.79383692 .00000432 00000-0 23084-3 0 9993

TLE line 2: 2 56638 98.8434 199.6960 0048564 284.3380 75.2406 14.17816983113132

Live tracking on map

Real-time ground track for satellite CZ-6A DEB.

In-orbit conjunctions

A list of the most updated potential collisions computed for object CZ-6A DEB.

Target Orbit TCA Probability of collision Miss distance Type
FENGYUN 1C DEB SSO 2024-11-14 12:50:37 0.0001185753 328.0 (m) DEBRIS
CZ-6A DEB LEO 2024-10-15 20:49:42 0.0002058349 317.0 (m) DEBRIS

Associated space launch

Chinese satellite reported for atmospheric/ocean/environmental/spatial parameter research purposes, details TBD.

CZ-6A DEB was lifted into orbit during the mission ‘Long March 6A | Yunhai 3’, on board a Long March 6A space rocket.

The launch took place on Nov. 11, 2022, 10:52 p.m. from Launch Complex 9A.

For more information about the launch, click the button.

Launch to space Long March 6A | Yunhai 3
Long March 6A | Yunhai 3

Agency: N/A

Status: Launch Successful

Launch date: Nov. 11, 2022, 10:52 p.m. UTC

Rocket: Long March 6A

Launch pad: Launch Complex 9A

Location: Taiyuan Satellite Launch Center, People's Republic of China

...

Latest news about this satellite

There are no fresh news available about this satellite. Check back as we update our databases every day.


Newsletter sign-up

Weekly statistics, charts and insights to help you stay on top of the space industry.